Welcome to Des Moines Iowa Weather. I am an independent private personal weather station on the Northwest Side of Des Moines, Iowa. Just East of Windsor Heights and just West of Glendale . This site is also mobile friendly.

There are no active watches, warnings or advisories


Visit our other weather sites:

Historical Data

Weather Station Setup



Weather Underground History page Text

Daily Summary for December 5, 2017 Units:  English    Metric   Both
« Previous Day
Next Day »
Daily Weekly Monthly Yearly Custom
  High: Low: Average:
Temperature: 35.4 °F 25.1 °F 30.4 °F
Dew Point: 24.0 °F 9.0 °F 16.7 °F
Humidity: 70 % 36 % 58 %
Wind Speed: 9.0 mph 0.0 mph 2.3 mph
Wind Gust: 18.0 mph - -
Wind:- - WSW
Pressure: 30.10 in 29.89 in -
Precipitation: 0.00 in    
Historical Graphs
 
 
Tabular Data for December 5, 2017
Time Temperature Dew Point Pressure Wind Wind Speed Wind Gust Humidity Rainfall Rate (Hourly)
00:01 29.3 °F 18.0 °F 29.89 in WNW 7.0 mph 18.0 mph 64 % 0.00 in
00:16 29.1 °F 17.0 °F 29.90 in West 3.0 mph 14.0 mph 62 % 0.00 in
00:31 29.0 °F 17.0 °F 29.91 in WNW 4.0 mph 16.0 mph 62 % 0.00 in
00:46 28.9 °F 17.0 °F 29.91 in West 3.0 mph 14.0 mph 61 % 0.00 in
01:01 28.8 °F 17.0 °F 29.93 in WNW 2.0 mph 18.0 mph 62 % 0.00 in
01:16 28.6 °F 17.0 °F 29.93 in WNW 4.0 mph 13.0 mph 62 % 0.00 in
01:31 28.4 °F 17.0 °F 29.95 in NW 4.0 mph 13.0 mph 62 % 0.00 in
01:46 28.1 °F 16.0 °F 29.95 in NW 5.0 mph 17.0 mph 62 % 0.00 in
02:16 27.9 °F 16.0 °F 29.97 in WNW 7.0 mph 15.0 mph 62 % 0.00 in
02:31 27.8 °F 17.0 °F 29.97 in NW 3.0 mph 13.0 mph 63 % 0.00 in
02:46 27.6 °F 16.0 °F 29.98 in WNW 3.0 mph 9.0 mph 63 % 0.00 in
03:01 27.6 °F 16.0 °F 29.98 in WNW 5.0 mph 14.0 mph 63 % 0.00 in
03:08 27.5 °F 16.0 °F 29.98 in WNW 2.0 mph 8.0 mph 63 % 0.00 in
03:24 27.4 °F 16.0 °F 29.98 in WSW 2.0 mph 7.0 mph 63 % 0.00 in
03:39 27.2 °F 16.0 °F 29.97 in WNW 1.0 mph 9.0 mph 63 % 0.00 in
03:53 27.1 °F 16.0 °F 29.97 in West 6.0 mph 9.0 mph 64 % 0.00 in
04:23 27.0 °F 16.0 °F 29.98 in WSW 2.0 mph 6.0 mph 64 % 0.00 in
04:39 26.8 °F 16.0 °F 29.98 in NW 2.0 mph 8.0 mph 65 % 0.00 in
05:09 26.5 °F 16.0 °F 29.98 in WNW 2.0 mph 9.0 mph 65 % 0.00 in
05:24 26.5 °F 16.0 °F 29.99 in WNW 4.0 mph 8.0 mph 65 % 0.00 in
05:39 26.4 °F 16.0 °F 29.99 in West 2.0 mph 6.0 mph 65 % 0.00 in
05:54 26.3 °F 16.0 °F 29.99 in West 3.0 mph 7.0 mph 66 % 0.00 in
06:24 26.1 °F 16.0 °F 30.00 in WNW 1.0 mph 6.0 mph 66 % 0.00 in
06:39 26.0 °F 16.0 °F 30.02 in West 1.0 mph 4.0 mph 66 % 0.00 in
06:54 25.8 °F 16.0 °F 30.02 in West 1.0 mph 7.0 mph 67 % 0.00 in
07:09 25.7 °F 16.0 °F 30.03 in West 1.0 mph 4.0 mph 66 % 0.00 in
07:24 25.6 °F 16.0 °F 30.04 in Calm   3.0 mph 67 % 0.00 in
07:39 25.3 °F 16.0 °F 30.05 in Calm   2.0 mph 67 % 0.00 in
07:54 25.1 °F 16.0 °F 30.05 in Calm   4.0 mph 68 % 0.00 in
08:09 25.4 °F 17.0 °F 30.05 in Calm   3.0 mph 69 % 0.00 in
08:24 25.8 °F 17.0 °F 30.06 in WSW 1.0 mph 3.0 mph 68 % 0.00 in
08:39 26.4 °F 17.0 °F 30.07 in West 2.0 mph 5.0 mph 67 % 0.00 in
08:54 26.9 °F 17.0 °F 30.07 in Calm   5.0 mph 66 % 0.00 in
09:09 27.2 °F 16.0 °F 30.07 in West 3.0 mph 6.0 mph 63 % 0.00 in
09:20 27.5 °F 16.0 °F 30.08 in North 4.0 mph 6.0 mph 63 % 0.00 in
09:50 28.4 °F 16.0 °F 30.09 in West 3.0 mph 9.0 mph 61 % 0.00 in
10:05 29.0 °F 17.0 °F 30.09 in WNW 1.0 mph 9.0 mph 61 % 0.00 in
10:20 29.7 °F 17.0 °F 30.10 in NW 2.0 mph 12.0 mph 60 % 0.00 in
10:35 30.5 °F 18.0 °F 30.10 in NW 8.0 mph 11.0 mph 59 % 0.00 in
10:50 30.5 °F 18.0 °F 30.10 in WNW 5.0 mph 6.0 mph 59 % 0.00 in
11:05 31.0 °F 18.0 °F 30.10 in NW 5.0 mph 15.0 mph 59 % 0.00 in
11:20 31.4 °F 17.0 °F 30.10 in WNW 4.0 mph 16.0 mph 56 % 0.00 in
11:35 31.3 °F 18.0 °F 30.09 in North 4.0 mph 16.0 mph 57 % 0.00 in
11:50 31.9 °F 18.0 °F 30.09 in North 3.0 mph 15.0 mph 56 % 0.00 in
12:05 33.2 °F 19.0 °F 30.09 in North 1.0 mph 15.0 mph 57 % 0.00 in
12:20 34.4 °F 18.0 °F 30.09 in WNW 9.0 mph 16.0 mph 51 % 0.00 in
12:35 34.6 °F 18.0 °F 30.08 in North 8.0 mph 13.0 mph 51 % 0.00 in
12:50 33.3 °F 17.0 °F 30.08 in North 7.0 mph 11.0 mph 52 % 0.00 in
13:05 34.7 °F 17.0 °F 30.07 in North 5.0 mph 15.0 mph 49 % 0.00 in
13:21 33.4 °F 16.0 °F 30.07 in North 3.0 mph 16.0 mph 49 % 0.00 in
13:35 33.8 °F 16.0 °F 30.06 in NNE 8.0 mph 15.0 mph 48 % 0.00 in
13:50 34.1 °F 16.0 °F 30.06 in North 3.0 mph 14.0 mph 48 % 0.00 in
14:05 34.1 °F 16.0 °F 30.05 in North 4.0 mph 10.0 mph 47 % 0.00 in
14:20 34.0 °F 15.0 °F 30.05 in North 4.0 mph 14.0 mph 46 % 0.00 in
14:35 34.3 °F 15.0 °F 30.05 in North 4.0 mph 11.0 mph 46 % 0.00 in
14:50 34.6 °F 15.0 °F 30.05 in North 3.0 mph 9.0 mph 44 % 0.00 in
15:05 34.7 °F 13.0 °F 30.06 in North 1.0 mph 9.0 mph 41 % 0.00 in
15:20 34.5 °F 12.0 °F 30.05 in North 3.0 mph 10.0 mph 39 % 0.00 in
15:36 34.4 °F 10.0 °F 30.06 in North 3.0 mph 14.0 mph 37 % 0.00 in
15:48 34.0 °F 9.0 °F 30.07 in WNW 3.0 mph 13.0 mph 36 % 0.00 in
16:03 33.5 °F 10.0 °F 30.07 in WNW 2.0 mph 11.0 mph 37 % 0.00 in
16:18 33.1 °F 10.0 °F 30.07 in WNW 3.0 mph 15.0 mph 38 % 0.00 in
16:33 32.7 °F 11.0 °F 30.08 in NW 1.0 mph 9.0 mph 40 % 0.00 in
16:48 32.4 °F 12.0 °F 30.08 in WNW 2.0 mph 4.0 mph 42 % 0.00 in
17:03 32.1 °F 12.0 °F 30.08 in WNW 1.0 mph 3.0 mph 44 % 0.00 in
17:18 31.8 °F 13.0 °F 30.08 in WNW 1.0 mph 4.0 mph 46 % 0.00 in
17:33 31.6 °F 13.0 °F 30.08 in WNW 1.0 mph 3.0 mph 47 % 0.00 in
17:48 31.4 °F 14.0 °F 30.08 in Calm   1.0 mph 49 % 0.00 in
17:58 31.1 °F 14.0 °F 30.07 in Calm     50 % 0.00 in
18:08 30.9 °F 15.0 °F 30.08 in Calm     51 % 0.00 in
18:23 30.7 °F 15.0 °F 30.07 in Calm     52 % 0.00 in
18:38 30.8 °F 15.0 °F 30.07 in Calm     53 % 0.00 in
19:08 30.9 °F 16.0 °F 30.07 in Calm     55 % 0.00 in
19:23 31.4 °F 17.0 °F 30.06 in WNW 1.0 mph 1.0 mph 55 % 0.00 in
19:38 31.7 °F 17.0 °F 30.05 in WNW 1.0 mph 1.0 mph 56 % 0.00 in
19:53 32.0 °F 18.0 °F 30.05 in Calm     56 % 0.00 in
20:08 32.3 °F 19.0 °F 30.04 in Calm     58 % 0.00 in
20:24 32.6 °F 20.0 °F 30.03 in Calm   1.0 mph 60 % 0.00 in
20:38 32.7 °F 20.0 °F 30.03 in Calm   2.0 mph 60 % 0.00 in
20:54 32.5 °F 20.0 °F 30.03 in Calm     60 % 0.00 in
21:04 32.3 °F 20.0 °F 30.03 in Calm   2.0 mph 61 % 0.00 in
21:34 31.6 °F 21.0 °F 30.03 in Calm     64 % 0.00 in
21:49 31.3 °F 21.0 °F 30.03 in Calm     66 % 0.00 in
22:04 31.5 °F 22.0 °F 30.02 in Calm     67 % 0.00 in
22:19 31.8 °F 22.0 °F 30.02 in Calm   2.0 mph 68 % 0.00 in
22:34 32.8 °F 24.0 °F 30.02 in Calm   3.0 mph 70 % 0.00 in
23:04 34.5 °F 24.0 °F 30.02 in Calm   2.0 mph 66 % 0.00 in
23:17 35.1 °F 24.0 °F 30.02 in Calm   1.0 mph 64 % 0.00 in
23:31 35.3 °F 24.0 °F 30.03 in Calm   2.0 mph 64 % 0.00 in
23:47 35.4 °F 24.0 °F 30.04 in Calm     64 % 0.00 in
Des Moines Weather and Climate
Compliments of Weather Underground - 3 mb

Script developed by  Jim McMurry - jmcmurry@mwt.net Adapted for the template by  Wim van der Kuil - Leuven-Template.eu

You find our weather info also at:

Weather Underground

Equipment we use:

Weather-station
Davis VP2 Plus

Weather-program
Davis Weatherlink.Com

Weather-server
iMac (Retina 4K, 21.5-inch, Late 2015)

Provider
Hostmonster.com

Davis VP2 Plus

Davis Weatherlink.Com

iMac (Retina 4K, 21.5-inch, Late 2015)

Hostmonster.com